• Join FlightAware (Why Join?)
  • Login
  • US Flag GB Flag 
19:39 EST


 

Airport Tracker/Info


-or-


 

Live Flight TrackerFlight Track Log ✈ UAL33 ✈ 09-Jun-2013 ✈ KIAH - KORD

Flight Track Log - Related Links

Times and Time Zones

All times are in EDT time to prevent confusion due to time zone crossing. See the UAL33 flight status page for this flight to view local times or setup timezone preferences in your user account.

Time Position Orientation Groundspeed Altitude Reporting Facility
EDT Latitude Longitude Course Direction KTS MPH feet Rate Location/Type
18:19 29.9625 -95.3461 156° South 170 196 600  Level FlightAware ADS-B
18:20 29.9464 -95.3461 180° South 180 207 1,400 2,444 Climbing FlightAware ADS-B
18:20 29.9417 -95.3497 214° Southwest 186 214 1,700 2,400 Climbing FlightAware ADS-B
18:20 29.9394 -95.3522 223° Southwest 192 221 1,800 1,286 Climbing FlightAware ADS-B
18:20 29.9344 -95.3610 237° Southwest 204 235 2,000 1,286 Climbing FlightAware ADS-B
18:20 29.9333 -95.3653 254° West 213 245 2,100 1,500 Climbing FlightAware ADS-B
18:20 29.9326 -95.3709 262° West 221 254 2,200 1,800 Climbing FlightAware ADS-B
18:20 29.9330 -95.3781 274° West 231 266 2,400 1,636 Climbing FlightAware ADS-B
18:20 29.9342 -95.3832 285° West 237 273 2,500 1,500 Climbing FlightAware ADS-B
18:20 29.9355 -95.3870 292° West 243 280 2,600 2,000 Climbing FlightAware ADS-B
18:20 29.9372 -95.3905 299° West 248 285 2,700 2,571 Climbing FlightAware ADS-B
18:20 29.9400 -95.3951 305° West 252 290 2,900 2,250 Climbing FlightAware ADS-B
18:21 29.9430 -95.3987 314° West 258 297 3,000 1,714 Climbing FlightAware ADS-B
18:21 29.9461 -95.4017 320° Northwest 263 303 3,100 2,250 Climbing FlightAware ADS-B
18:21 29.9512 -95.4053 329° Northwest 268 308 3,300 2,250 Climbing FlightAware ADS-B
18:21 29.9548 -95.4073 334° Northwest 269 310 3,400 1,714 Climbing FlightAware ADS-B
18:21 29.9595 -95.4091 342° North 270 311 3,500 1,500 Climbing FlightAware ADS-B
18:21 29.9642 -95.4103 348° North 270 311 3,600 1,714 Climbing FlightAware ADS-B
18:21 29.9686 -95.4112 350° North 271 312 3,700 2,526 Climbing FlightAware ADS-B
18:21 29.9874 -95.4136 354° North 273 314 4,400 3,273 Climbing FlightAware ADS-B
18:22 30.0377 -95.4187 355° North 279 321 6,700 3,375 Climbing FlightAware ADS-B
18:23 30.1131 -95.4257 355° North 292 336 9,800 3,344 Climbing FlightAware ADS-B
18:23 30.1187 -95.4268 350° North 292 336 10,100 2,842 Climbing FlightAware ADS-B
18:23 30.1388 -95.4330 343° North 302 348 10,700 2,000 Climbing FlightAware ADS-B
18:23 30.1470 -95.4367 339° North 309 356 10,800 1,773 Climbing FlightAware ADS-B
18:24 30.2000 -95.4659 334° Northwest 350 403 12,000 2,640 Climbing FlightAware ADS-B
18:25 30.2937 -95.5176 334° Northwest 374 430 15,200 2,862 Climbing FlightAware ADS-B
18:26 30.4049 -95.5795 334° Northwest 403 464 18,200 2,588 Climbing FlightAware ADS-B
18:27 30.4620 -95.6109 335° Northwest 411 473 19,600 2,625 Climbing FlightAware ADS-B
18:27 30.5141 -95.6400 334° Northwest 419 482 21,000 2,674 Climbing FlightAware ADS-B
18:28 30.6235 -95.6992 336° Northwest 423 487 23,700 2,474 Climbing FlightAware ADS-B
18:29 30.6875 -95.7332 335° Northwest 429 494 25,000 2,328 Climbing FlightAware ADS-B
18:29 30.7457 -95.7642 335° Northwest 434 499 26,300 1,958 Climbing FlightAware ADS-B
18:30 30.8627 -95.8272 335° Northwest 453 521 28,100 1,694 Climbing FlightAware ADS-B
18:31 30.9809 -95.8907 335° Northwest 469 540 29,800 1,699 Climbing FlightAware ADS-B
18:32 31.0846 -95.9466 335° Northwest 478 550 31,300 1,701 Climbing FlightAware ADS-B
18:32 31.1169 -95.9613 339° North 482 555 31,700 1,391 Climbing FlightAware ADS-B
18:33 31.2334 -95.9935 349° North 494 568 32,900 1,429 Climbing FlightAware ADS-B
18:34 31.3017 -96.0094 349° North 497 572 33,700 1,574 Climbing FlightAware ADS-B
18:34 31.3720 -96.0258 349° North 498 573 34,500 1,313 Climbing FlightAware ADS-B
18:35 31.4465 -96.0433 349° North 506 582 35,100 1,417 Climbing FlightAware ADS-B
18:36 31.6632 -96.0942 349° North 505 581 37,500 1,500 Climbing FlightAware ADS-B
18:37 31.7320 -96.1105 349° North 501 577 38,200 1,286 Climbing FlightAware ADS-B
18:38 31.8226 -96.1319 349° North 496 571 39,000 600 Climbing FlightAware ADS-B
18:38 31.9124 -96.1532 349° North 493 567 39,000  Level FlightAware ADS-B
18:39 31.9840 -96.1700 349° North 489 563 39,000  Level FlightAware
18:40 32.0830 -96.1940 348° North 488 562 39,000  Level FlightAware
18:40 32.1051 -96.1987 350° North 491 565 39,000  Level FlightAware ADS-B
18:41 32.3448 -96.2199 359° North 495 570 39,000  Level FlightAware ADS-B
18:43 32.5335 -96.2222 359° North 494 568 39,000  Level FlightAware ADS-B
18:44 32.6500 -96.2240 359° North 490 564 39,000  Level FlightAware
18:44 32.7180 -96.2240 360° North 484 557 39,000  Level FlightAware
18:45 32.8390 -96.2260 359° North 474 545 39,000  Level FlightAware
18:46 32.9330 -96.2270 359° North 470 541 39,000  Level FlightAware
18:46 33.0200 -96.2280 359° North 473 544 39,000  Level FlightAware
18:47 33.1070 -96.2290 359° North 471 542 39,000  Level FlightAware
18:48 33.2030 -96.2300 360° North 467 537 39,000  Level FlightAware
18:49 33.2990 -96.2310 360° North 466 536 39,000  Level FlightAware
18:49 33.3800 -96.2320 359° North 467 537 39,000  Level FlightAware
18:50 33.4820 -96.2330 360° North 469 540 39,000  Level FlightAware
18:50 33.5440 -96.2280 North 469 540 39,000  Level FlightAware
18:51 33.6250 -96.2040 14° North 469 540 39,000  Level FlightAware
18:52 33.7160 -96.1730 16° North 466 536 39,000  Level FlightAware
18:53 33.8040 -96.1430 16° North 464 534 39,000  Level FlightAware
18:53 33.8900 -96.1140 16° North 462 532 39,000  Level FlightAware
18:54 33.9720 -96.0860 16° North 459 528 39,000  Level FlightAware
18:55 34.0640 -96.0550 16° North 455 524 39,000  Level FlightAware
18:55 34.1510 -96.0250 16° North 454 522 39,000  Level FlightAware
18:56 34.2190 -96.0010 16° North 456 525 39,000  Level FlightAware
18:57 34.3150 -95.9680 16° North 455 524 39,000  Level FlightAware
18:57 34.3990 -95.9390 16° North 454 522 39,000  Level FlightAware
18:58 34.4870 -95.9080 16° North 455 524 39,000  Level FlightAware
18:59 34.5730 -95.8790 16° North 458 527 39,000  Level FlightAware
19:00 34.6420 -95.8550 16° North 459 528 39,000  Level FlightAware
19:00 34.7370 -95.8220 16° North 459 528 39,000  Level FlightAware
19:01 34.8220 -95.7900 17° North 462 532 39,000  Level FlightAware
19:02 34.9040 -95.7190 35° Northeast 478 550 39,000  Level FlightAware
19:02 34.9680 -95.6440 44° Northeast 477 549 39,000  Level FlightAware
19:03 35.0280 -95.5760 43° Northeast 477 549 39,000  Level FlightAware
19:04 35.0770 -95.5200 43° Northeast 477 549 39,000  Level FlightAware
19:06 35.3110 -95.2420 44° Northeast 478 550 39,000  Level FlightAware
19:06 34.6540 -95.8510 217° Southwest 39,000  Level FlightAware
19:07 35.3970 -95.1410 38° Northeast 485 558 39,000 247 Level FlightAware
19:07 35.4610 -95.0650 44° Northeast 492 566 39,300 585 Climbing FlightAware
19:08 35.5310 -94.9820 44° Northeast 498 573 39,800 512 Climbing FlightAware
19:09 35.5920 -94.9100 44° Northeast 504 580 40,000 444 Climbing FlightAware
19:10 35.6600 -94.8290 44° Northeast 509 586 40,400 545 Climbing FlightAware
19:10 35.7470 -94.7250 44° Northeast 516 594 40,800 404 Climbing FlightAware
19:11 35.8180 -94.6400 44° Northeast 517 595 41,000 146 Climbing FlightAware
19:12 35.8870 -94.5570 44° Northeast 514 592 41,000  Level FlightAware
19:12 35.9610 -94.4680 44° Northeast 514 592 41,000  Level FlightAware
19:13 36.0300 -94.3840 45° Northeast 511 588 41,000  Level FlightAware
19:14 36.1010 -94.2980 44° Northeast 509 586 41,000  Level FlightAware
19:15 36.1730 -94.2110 44° Northeast 511 588 41,000  Level FlightAware
19:15 36.2470 -94.1270 42° Northeast 505 581 41,000  Level FlightAware
19:16 36.3240 -94.0670 32° Northeast 498 573 41,000  Level FlightAware
19:17 36.4140 -94.0040 29° Northeast 495 570 41,000  Level FlightAware
19:17 36.4860 -93.9540 29° Northeast 492 566 41,000  Level FlightAware
19:18 36.5760 -93.8900 30° Northeast 491 565 41,000  Level FlightAware
19:19 36.6620 -93.8290 30° Northeast 490 564 41,000  Level FlightAware
19:19 36.7370 -93.7760 30° Northeast 490 564 41,000  Level FlightAware
19:20 36.8250 -93.7140 29° Northeast 490 564 41,000  Level FlightAware
19:21 36.9110 -93.6530 30° Northeast 492 566 41,000  Level FlightAware
19:21 36.9910 -93.5960 30° Northeast 495 570 41,000  Level FlightAware
19:22 37.0740 -93.5370 30° Northeast 499 574 41,000  Level FlightAware
19:23 37.1540 -93.4790 30° Northeast 499 574 41,000  Level FlightAware
19:24 37.2390 -93.4190 29° Northeast 499 574 41,000  Level FlightAware
19:24 37.3320 -93.3510 30° Northeast 501 577 41,000  Level FlightAware
19:25 37.4070 -93.2870 34° Northeast 505 581 41,000  Level FlightAware
19:26 37.4910 -93.2100 36° Northeast 506 582 41,000  Level FlightAware
19:26 37.5700 -93.1360 37° Northeast 506 582 41,000  Level FlightAware
19:27 37.6460 -93.0660 36° Northeast 507 583 41,000  Level FlightAware
19:28 37.7290 -92.9890 36° Northeast 508 585 41,000  Level FlightAware
19:28 37.8050 -92.9190 36° Northeast 511 588 41,000  Level FlightAware
19:29 37.8870 -92.8410 37° Northeast 514 592 41,000  Level FlightAware
19:30 37.9650 -92.7690 36° Northeast 514 592 41,000  Level FlightAware
19:31 38.0500 -92.6890 37° Northeast 512 589 41,000  Level FlightAware
19:31 38.1250 -92.6180 37° Northeast 513 590 41,000  Level FlightAware
19:32 38.2040 -92.5430 37° Northeast 513 590 41,000  Level FlightAware
19:33 38.2760 -92.4750 37° Northeast 513 590 41,000  Level FlightAware
19:33 38.3400 -92.4160 36° Northeast 513 590 41,000  Level FlightAware
19:34 38.4380 -92.3200 37° Northeast 513 590 41,000  Level FlightAware
19:35 38.5020 -92.2610 36° Northeast 513 590 41,000  Level FlightAware
19:35 38.5800 -92.1880 36° Northeast 513 590 41,000  Level FlightAware
19:36 38.6750 -92.1000 36° Northeast 513 590 41,000  Level FlightAware
19:37 38.7840 -91.9890 38° Northeast 513 590 41,000  Level FlightAware
19:38 38.8710 -91.9040 37° Northeast 513 590 41,000  Level FlightAware
19:39 38.9530 -91.8240 37° Northeast 513 590 41,000  Level FlightAware
19:39 39.0320 -91.7480 37° Northeast 513 590 41,000  Level FlightAware
19:40 39.0920 -91.6900 37° Northeast 513 590 41,000  Level FlightAware
19:41 39.2170 -91.5660 38° Northeast 520 598 41,000  Level FlightAware
19:42 39.2900 -91.4950 37° Northeast 523 602 41,000  Level FlightAware
19:42 39.3770 -91.4090 37° Northeast 523 602 41,000  Level FlightAware
19:43 39.4360 -91.3510 37° Northeast 523 602 41,000  Level FlightAware
19:44 39.5430 -91.2450 37° Northeast 522 601 41,000  Level FlightAware
19:44 39.6190 -91.1690 38° Northeast 521 600 41,000  Level FlightAware
19:45 39.7020 -91.0860 38° Northeast 522 601 41,000  Level FlightAware
19:46 39.7770 -91.0120 37° Northeast 524 603 41,000 -975 Level FlightAware
19:46 39.8570 -90.9320 38° Northeast 527 606 39,700 -2,122 Descending FlightAware
19:47 39.9410 -90.8470 38° Northeast 535 616 38,100 -1,706 Descending FlightAware
19:48 40.0460 -90.7420 37° Northeast 538 619 36,800 -2,589 Descending FlightAware
19:49 40.1270 -90.6580 38° Northeast 533 613 34,000 -2,815 Descending FlightAware
19:49 40.2150 -90.5690 38° Northeast 538 619 33,000 -714 Descending FlightAware
19:50 40.2910 -90.4910 38° Northeast 541 623 33,000  Level FlightAware
19:51 40.3770 -90.4030 38° Northeast 543 625 33,000  Level FlightAware
19:52 40.4550 -90.3230 38° Northeast 545 627 33,000  Level FlightAware
19:52 40.5480 -90.2270 38° Northeast 544 626 33,000 -141 Level FlightAware
19:53 40.6290 -90.1430 38° Northeast 518 596 32,800 -1,902 Descending FlightAware
19:54 40.7080 -90.0620 38° Northeast 515 593 30,400 -3,318 Descending FlightAware
19:54 40.7870 -89.9800 38° Northeast 499 574 28,100 -2,602 Descending FlightAware
19:55 40.8580 -89.9050 39° Northeast 491 565 26,800 -1,429 Descending FlightAware
19:56 40.9370 -89.8230 38° Northeast 489 563 26,100 -988 Descending FlightAware
19:56 41.0090 -89.7470 39° Northeast 488 562 25,400 -1,024 Descending FlightAware
19:57 41.0800 -89.6720 39° Northeast 481 554 24,700 -1,084 Descending FlightAware
19:58 41.1480 -89.5930 41° Northeast 471 542 23,900 -1,694 Descending FlightAware
19:59 41.1990 -89.4900 57° Northeast 458 527 22,300 -2,233 Descending FlightAware
19:59 41.2410 -89.3860 62° Northeast 450 518 20,700 -2,175 Descending FlightAware
20:00 41.2790 -89.2930 61° Northeast 440 506 19,400 -2,053 Descending FlightAware
20:01 41.3150 -89.2040 62° Northeast 433 498 18,100 -1,953 Descending FlightAware
20:01 41.3600 -89.0910 62° Northeast 423 487 16,600 -1,933 Descending FlightAware
20:02 41.3970 -88.9980 62° Northeast 397 457 15,200 -1,857 Descending FlightAware
20:03 41.4310 -88.9130 62° Northeast 364 419 14,000 -1,744 Descending FlightAware
20:04 41.4670 -88.8220 62° Northeast 365 420 12,700 -1,724 Descending FlightAware
20:04 41.5000 -88.7380 62° Northeast 355 409 11,500 -1,171 Descending FlightAware
20:05 41.5290 -88.6670 61° Northeast 325 374 11,100 -253 Descending FlightAware
20:06 41.5670 -88.5700 62° Northeast 306 352 11,100 -356 Level FlightAware
20:07 41.5970 -88.4950 62° Northeast 309 356 10,500 -857 Descending FlightAware
20:07 41.6290 -88.4330 55° Northeast 306 352 9,900 -985 Descending FlightAware
20:08 41.6530 -88.3930 51° Northeast 305 351 9,400 -913 Descending FlightAware
20:08 41.6730 -88.3720 38° Northeast 303 349 9,200 -1,000 Descending FlightAware
20:08 41.7060 -88.3580 18° North 303 349 8,700 -1,019 Descending FlightAware
20:09 41.7430 -88.3440 16° North 298 343 8,300 -1,000 Descending FlightAware
20:09 41.7770 -88.3310 16° North 295 339 7,800 -1,132 Descending FlightAware
20:10 41.8130 -88.3180 15° North 290 334 7,300 -875 Descending FlightAware
20:10 41.8390 -88.3090 14° North 273 314 7,100 -818 Descending FlightAware
20:10 41.8680 -88.2990 14° North 249 287 6,700 -727 Descending FlightAware
20:11 41.8780 -88.2960 13° North 246 283 6,300 -2,339 Descending FlightAware
20:11 41.9290 -88.2710 20° North 234 269 4,400 -2,933 Descending FlightAware
20:12 41.9440 -88.2370 59° Northeast 225 259 4,100 -310 Descending FlightAware
20:12 41.9590 -88.2010 61° Northeast 217 250 4,100  Level FlightAware
20:13 41.9680 -88.1680 70° East 187 215 4,100 -529 Level FlightAware
20:14 41.9680 -88.1230 90° East 187 215 3,500 -938 Descending FlightAware
20:14 41.9690 -88.0950 87° East 181 208 3,100 -1,034 Descending FlightAware
20:15 41.9690 -88.0570 90° East 181 208 2,500 -1,065 Descending FlightAware
20:15 41.9690 -88.0260 90° East 164 189 2,000 -857 Descending FlightAware
20:15 41.9690 -88.0000 90° East 144 166 1,700 -643 Descending FlightAware
20:16 41.9690 -87.9760 90° East 143 165 1,400 -600 Descending FlightAware
20:16 41.9690 -87.9650 90° East 141 162 1,300 -706 Descending FlightAware
20:16 41.9690 -87.9460 90° East 138 159 1,000 -679 Descending FlightAware
20:17 41.9690 -87.9240 90° East 133 153 700 -194 Descending FlightAware
20:18 41.9690 -87.9000 90° East 122 140 800 194 Climbing FlightAware
20:23 41.9790 -87.9130 340° North 25 29 -156 Descending FlightAware